Location: Malvern Link
(52.1333°N, 2.3000°W)
Time: 12:39:56
(UTC+00:00)

MOZHAYETS 4 - Pass Details

Date: 04 July 2022
Orbit: 660 x 679 km, 98.2° (Epoch: 12 August)

Event Time Altitude Azimuth Distance (km) Brightness Sun altitude
Exits shadow 02:38:38 - 177° (S) 2,550 10.2 -8.6°
Reaches altitude 10° 02:39:44 10° 179° (S) 2,107 9.8 -8.5°
Maximum altitude 02:44:17 58° 259° (WSW) 790 7.9 -8.1°
Drops below altitude 10° 02:48:50 10° 338° (NNW) 2,112 10.8 -7.7°
Sets 02:51:06 0° 343° (NNW) 3,027 11.7 -7.5°
